15 daagse weersverwachting Lugano (CH)

  • Overzicht
  • Per uur
  • 15 dagen
  • Extra
  • Vergelijk
  • Kaarten
  • Dagkaart
  • Meer »
  • Info
  • Statistieken
  • Directe link
    Temp 6h Neerslag Wind  
 07:34     16:47    Daglengte: 9:13 Morgen
01:00
 
1
07:00
2.9 mm
1
13:00
10°
0.8 mm
1
19:00
2.5 mm
1
 07:36     16:46    Daglengte: 9:10 Vrijdag 22 Nov
01:00
7.3 mm
1
07:00
15.7 mm
2
13:00
24.6 mm
2
19:00
24.0 mm
1
 07:37     16:45    Daglengte: 9:08 Zaterdag 23 Nov
01:00
24.8 mm
1
07:00
27.7 mm
2
13:00
33.7 mm
2
19:00
47.7 mm
2
Locatie info
Region: Lugano
Latitude: 46.0030°N
Longitude: 8.9513°E
284 masl
Postcode: 6900
Temp/Neerslag /Baro Onweer/DauwpuntSneeuw
    Temp Baro 1h Neerslag Dauwpunt Wind UV BewolkingSneeuw  
 07:33     16:47    Daglengte: 9:14 Vandaag
23:00
Voelt als: 7.2°
1012.3 hPa
48%
6.4°
1
Windvlaag: 0 km/h
65%2 cm
 07:34     16:47    Daglengte: 9:13 Morgen
00:00
Voelt als: 7.3°
1012.4 hPa
32%
6.4°
1
Windvlaag: 0.1 km/h
62%2 cm
01:00
Voelt als: 7.3°
1012.1 hPa
39%
6.3°
1
Windvlaag: 0.1 km/h
76%2 cm
02:00
Voelt als: 7.5°
1011.7 hPa
78%
6.3°
1
Windvlaag: 0 km/h
81%2 cm
03:00
Voelt als: 7.7°
1011.5 hPa 0.3 mm
81%
6.5°
1
Windvlaag: 0.1 km/h
85%2 cm
04:00
Voelt als: 7.9°
1011.3 hPa 0.5 mm
82%
6.7°
1
Windvlaag: 0.2 km/h
87%2 cm
05:00
Voelt als: 8.1°
1011.3 hPa 0.6 mm
82%
7.2°
1
Windvlaag: 0.3 km/h
89%2 cm
06:00
1011.4 hPa 0.9 mm
82%
7.1°
1
Windvlaag: 0.4 km/h
86%2 cm
07:00
Voelt als: 7.6°
1011.6 hPa 0.5 mm
82%
6.8°
1
Windvlaag: 0.4 km/h
84%2 cm
08:00
Voelt als: 7.5°
1011.8 hPa 0.4 mm
82%
6.9°
1
Windvlaag: 0.8 km/h
75%2 cm
09:00
Voelt als: 8.3°
1012.3 hPa 0.4 mm
80%
7.6°
1
Windvlaag: 0.7 km/h
73%2 cm
10:00
Voelt als: 8.3°
1012.5 hPa
74%
7.8°
1
Windvlaag: 0.5 km/h
64%2 cm
11:00
Voelt als: 8.6°
1012.7 hPa
68%
7.8°
1
Windvlaag: 0.6 km/h
42%2 cm
12:00
Voelt als: 8.9°
1012.4 hPa
74%
7.7°
1
Windvlaag: 0.5 km/h
60%2 cm
13:00
10°
1012.1 hPa
79%
7.7°
1
Windvlaag: 0.1 km/h
52%2 cm
14:00
10°
1011.8 hPa 0.4 mm
82%
7.2°
1
Windvlaag: 0 km/h
52%2 cm
15:00
10°
1011.6 hPa 0.3 mm
82%
6.8°
1
Windvlaag: 0.2 km/h
58%2 cm
16:00
1011.5 hPa
82%
6.7°
1
Windvlaag: 0.6 km/h
52%2 cm
17:00
1011.8 hPa 0.5 mm
82%
6.8°
1
Windvlaag: 0.5 km/h
60%2 cm
18:00
1012.3 hPa 0.6 mm
81%
6.6°
1
Windvlaag: 0.4 km/h
70%2 cm
19:00
Voelt als: 8.0°
1012.6 hPa 0.7 mm
81%
6.4°
1
Windvlaag: 0.5 km/h
81%2 cm
20:00
Voelt als: 7.7°
1012.8 hPa 1.6 mm
82%
6.1°
1
Windvlaag: 0.2 km/h
84%2 cm
21:00
Voelt als: 7.3°
1012.7 hPa 1.1 mm
82%
5.6°
1
Windvlaag: 0.7 km/h
79%1 cm
22:00
Voelt als: 7.1°
1012.8 hPa 1.1 mm
82%
5.3°
1
Windvlaag: 0.9 km/h
81%1 cm
23:00
Voelt als: 7.1°
1012.6 hPa 1.1 mm
82%
5.4°
1
Windvlaag: 0.8 km/h
81%1 cm
 07:36     16:46    Daglengte: 9:10 Vrijdag 22 Nov
00:00
Voelt als: 7.2°
1012.6 hPa 1.1 mm
82%
5.5°
1
Windvlaag: 1 km/h
90%1 cm
01:00
Voelt als: 7.0°
1012.4 hPa 1.4 mm
82%
5.7°
1
Windvlaag: 0.9 km/h
91%1 cm
02:00
Voelt als: 6.9°
1012.4 hPa 1.7 mm
82%
6.0°
1
Windvlaag: 0.6 km/h
89%1 cm
03:00
Voelt als: 6.6°
1012.3 hPa 2.0 mm
82%
5.9°
2
Windvlaag: 0.8 km/h
90%1 cm
04:00
Voelt als: 6.1°
1012.0 hPa 2.4 mm
82%
6.0°
2
Windvlaag: 0.4 km/h
90%1 cm
05:00
Voelt als: 5.9°
1012.1 hPa 2.8 mm
82%
5.8°
2
Windvlaag: 0.7 km/h
89%1 cm
06:00
Voelt als: 5.7°
1012.2 hPa 3.2 mm
82%
5.7°
2
Windvlaag: 0.6 km/h
90%1 cm
07:00
Voelt als: 5.6°
1012.4 hPa 3.6 mm
82%
5.9°
2
Windvlaag: 0.3 km/h
90%1 cm
08:00
Voelt als: 5.7°
1012.7 hPa 3.8 mm
82%
5.8°
2
Windvlaag: -0.1 km/h
90%1 cm
09:00
Voelt als: 5.8°
1013.0 hPa 3.9 mm
82%
5.8°
2
Windvlaag: -0 km/h
89%1 cm
10:00
Voelt als: 5.8°
1013.2 hPa 4.0 mm
82%
5.9°
2
Windvlaag: 0.2 km/h
89%1 cm
11:00
Voelt als: 6.0°
1013.4 hPa 4.0 mm
82%
6.1°
2
Windvlaag: 0.3 km/h
90%1 cm
12:00
Voelt als: 5.9°
1013.1 hPa 4.3 mm
82%
5.9°
2
Windvlaag: 1.2 km/h
91%1 cm
13:00
Voelt als: 5.8°
1012.7 hPa 4.6 mm
82%
6.0°
2
Windvlaag: 0.2 km/h
90%1 cm
14:00
Voelt als: 5.8°
1012.4 hPa 4.4 mm
82%
6.2°
2
Windvlaag: 0.2 km/h
89%1 cm
15:00
Voelt als: 6.2°
1012.1 hPa 4.2 mm
82%
6.2°
2
Windvlaag: -0.3 km/h
88%1 cm
16:00
Voelt als: 6.8°
1012.3 hPa 4.1 mm
100%
6.1°
1
Windvlaag: 0 km/h
93%1 cm
17:00
Voelt als: 6.6°
1012.4 hPa 3.7 mm
100%
6.3°
1
Windvlaag: 0.4 km/h
97%1 cm
18:00
1012.2 hPa 3.4 mm
100%
6.4°
1
Windvlaag: -0.1 km/h
91%1 cm
19:00
Voelt als: 6.6°
1012.4 hPa 4.2 mm
100%
6.2°
1
Windvlaag: 0.6 km/h
91%1 cm
20:00
Voelt als: 6.4°
1012.5 hPa 4.0 mm
100%
6.0°
1
Windvlaag: 0.7 km/h
95%1 cm
21:00
Voelt als: 6.5°
1012.6 hPa 4.5 mm
100%
6.1°
1
Windvlaag: 0.1 km/h
98%1 cm
22:00
Voelt als: 6.5°
1012.6 hPa 4.0 mm
100%
6.1°
1
Windvlaag: 0 km/h
99%1 cm
23:00
Voelt als: 6.5°
1012.2 hPa 4.0 mm
100%
6.2°
1
Windvlaag: -0.1 km/h
100%1 cm
 07:37     16:45    Daglengte: 9:08 Zaterdag 23 Nov
00:00
Voelt als: 6.9°
1011.8 hPa 4.1 mm
100%
6.2°
1
Windvlaag: 0.2 km/h
100%1 cm
01:00
Voelt als: 6.7°
1011.2 hPa 4.2 mm
100%
6.2°
1
Windvlaag: 0.1 km/h
100%1 cm
02:00
Voelt als: 6.8°
1010.7 hPa 4.2 mm
100%
6.2°
1
Windvlaag: 0.2 km/h
100%1 cm
03:00
Voelt als: 6.7°
1010.1 hPa 4.5 mm
100%
6.1°
2
Windvlaag: 0.5 km/h
99%1 cm
04:00
Voelt als: 6.5°
1009.6 hPa 4.5 mm
100%
5.9°
2
Windvlaag: 1 km/h
100%1 cm
05:00
Voelt als: 6.4°
1009.3 hPa 4.7 mm
100%
6.0°
2
Windvlaag: 1.1 km/h
99%1 cm
06:00
Voelt als: 6.6°
1009.3 hPa 4.8 mm
100%
6.0°
2
Windvlaag: 1.5 km/h
99%1 cm
07:00
Voelt als: 6.5°
1009.2 hPa 5.0 mm
100%
6.2°
2
Windvlaag: 0.9 km/h
100%1 cm
08:00
Voelt als: 7.2°
1009.3 hPa 5.2 mm
100%
6.3°
2
Windvlaag: 0.8 km/h
100%1 cm
09:00
Voelt als: 7.3°
1009.5 hPa 5.2 mm
100%
6.3°
2
Windvlaag: 0.9 km/h
100%1 cm
10:00
Voelt als: 7.2°
1009.4 hPa 5.4 mm
100%
6.5°
2
Windvlaag: 0.8 km/h
100%1 cm
11:00
Voelt als: 8.0°
1009.4 hPa 5.7 mm
100%
6.6°
2
Windvlaag: 1 km/h
100%1 cm
12:00
Voelt als: 8.4°
1009.0 hPa 5.9 mm
100%
6.9°
2
Windvlaag: 0.7 km/h
100%1 cm
13:00
Voelt als: 8.2°
1008.5 hPa 6.3 mm
100%
7.2°
2
Windvlaag: 1.1 km/h
100%1 cm
14:00
10°
Voelt als: 8.6°
1007.9 hPa 8.3 mm
100%
8.0°
3
Windvlaag: 2.2 km/h
100%1 cm
15:00
10°
Voelt als: 8.5°
1007.8 hPa 8.4 mm
100%
7.9°
2
Windvlaag: 2.1 km/h
100%1 cm
16:00
10°
Voelt als: 8.6°
1007.9 hPa 8.5 mm
100%
7.7°
2
Windvlaag: 2.1 km/h
100%1 cm
17:00
10°
Voelt als: 8.7°
1008.4 hPa 7.7 mm
100%
7.6°
2
Windvlaag: 2.1 km/h
97%1 cm
18:00
Voelt als: 8.3°
1008.8 hPa 7.4 mm
100%
7.5°
2
Windvlaag: 2.1 km/h
95%1 cm
19:00
Voelt als: 8.4°
1009.4 hPa 7.5 mm
100%
7.3°
2
Windvlaag: 2.1 km/h
98%1 cm
20:00
10°
Voelt als: 8.7°
1009.7 hPa 34.0 mm
100%
7.7°
2
Windvlaag: 15.7 km/h
96%1 cm
21:00
10°
Voelt als: 8.7°
1010.1 hPa 34.5 mm
100%
7.7°
2
Windvlaag: 14 km/h
93%1 cm
22:00
Voelt als: 8.4°
1010.5 hPa 37.1 mm
100%
7.7°
2
Windvlaag: 15.2 km/h
89%1 cm
Temp/Neerslag /Baro Onweer/DauwpuntSneeuw
    Temp Baro Neerslag Dauwpunt Wind BewolkingSneeuw  
 07:34     16:47    Daglengte: 9:13 Morgen
01:00
Voelt als: 7.3°
1012.1 hPa   6.3°
1
76%2 cm
04:00
Voelt als: 7.9°
1011.3 hPa 0.8 mm 6.7°
1
87%2 cm
07:00
Voelt als: 7.6°
1011.6 hPa 2.0 mm 6.8°
1
84%2 cm
10:00
Voelt als: 8.3°
1012.5 hPa 0.8 mm 7.8°
1
64%2 cm
13:00
10°
1012.1 hPa   7.7°
1
52%2 cm
16:00
1011.5 hPa 0.8 mm 6.7°
1
52%2 cm
19:00
Voelt als: 8.0°
1012.6 hPa 1.8 mm 6.4°
1
81%2 cm
22:00
Voelt als: 7.1°
1012.8 hPa 3.8 mm 5.3°
1
81%1 cm
 07:36     16:46    Daglengte: 9:10 Vrijdag 22 Nov
01:00
Voelt als: 7.0°
1012.4 hPa 3.6 mm 5.7°
1
91%1 cm
04:00
Voelt als: 6.1°
1012.0 hPa 6.1 mm 6.0°
2
90%1 cm
07:00
Voelt als: 5.6°
1012.4 hPa 9.6 mm 5.9°
2
90%1 cm
10:00
Voelt als: 5.8°
1013.2 hPa 11.7 mm 5.9°
2
89%1 cm
13:00
Voelt als: 5.8°
1012.7 hPa 12.9 mm 6.0°
2
90%1 cm
16:00
Voelt als: 6.8°
1012.3 hPa 12.7 mm 6.1°
1
93%1 cm
19:00
Voelt als: 6.6°
1012.4 hPa 11.3 mm 6.2°
1
91%1 cm
22:00
Voelt als: 6.5°
1012.6 hPa 12.5 mm 6.1°
1
99%1 cm
 07:37     16:45    Daglengte: 9:08 Zaterdag 23 Nov
01:00
Voelt als: 6.7°
1011.2 hPa 12.3 mm 6.2°
1
100%1 cm
04:00
Voelt als: 6.5°
1009.6 hPa 13.2 mm 5.9°
2
100%1 cm
07:00
Voelt als: 6.5°
1009.2 hPa 14.5 mm 6.2°
2
100%1 cm
10:00
Voelt als: 7.2°
1009.4 hPa 15.8 mm 6.5°
2
100%1 cm
13:00
Voelt als: 8.2°
1008.5 hPa 17.9 mm 7.2°
2
100%1 cm
16:00
10°
Voelt als: 8.6°
1007.9 hPa 25.2 mm 7.7°
2
100%1 cm
19:00
Voelt als: 8.4°
1009.4 hPa 22.5 mm 7.3°
2
98%1 cm
22:00
Voelt als: 8.4°
1010.5 hPa 105.7 mm 7.7°
2
89%1 cm
 07:38     16:44    Daglengte: 9:06 Zondag 24 Nov
01:00
Voelt als: 8.2°
1011.5 hPa 128.5 mm 7.5°
2
78%1 cm
04:00
Voelt als: 7.8°
1013.1 hPa 70.1 mm 6.1°
1
79%
07:00
Voelt als: 7.4°
1013.6 hPa 73.1 mm 5.6°
1
84%
10:00
11°
1014.0 hPa 73.6 mm 6.8°
1
45%
13:00
15°
1014.3 hPa 73.6 mm 7.6°
1
6%
16:00
13°
1014.6 hPa 73.6 mm 7.2°
1
49%
19:00
10°
1015.0 hPa 73.6 mm 6.3°
1
91%
22:00
10°
1015.0 hPa 73.6 mm 6.4°
1
91%
 07:39     16:44    Daglengte: 9:05 Maandag 25 Nov
01:00
10°
1014.8 hPa 73.6 mm 6.5°
1
92%
04:00
10°
1013.9 hPa 73.6 mm 6.7°
1
92%
07:00
10°
Voelt als: 9.5°
1013.1 hPa 73.6 mm 6.9°
1
92%
10:00
10°
1012.5 hPa 73.6 mm 8.1°
1
92%
13:00
11°
1011.8 hPa 73.6 mm 9.2°
0
92%
16:00
11°
1011.0 hPa 73.6 mm 9.2°
1
91%
19:00
10°
1010.3 hPa 73.6 mm 9.0°
1
91%
22:00
10°
Voelt als: 9.9°
1009.6 hPa 73.6 mm 8.7°
1
81%
 07:41     16:43    Daglengte: 9:02 Dinsdag 26 Nov
01:00
10°
1008.8 hPa 73.6 mm 8.5°
1
71%
04:00
Voelt als: 8.0°
1008.4 hPa 73.6 mm 6.9°
1
73%
07:00
Voelt als: 6.2°
1008.0 hPa 73.6 mm 5.2°
1
75%
10:00
10°
1008.1 hPa 73.6 mm 6.0°
1
82%
13:00
13°
1008.1 hPa 73.6 mm 6.0°
1
88%
16:00
11°
1008.6 hPa 73.6 mm 7.1°
1
89%
19:00
Voelt als: 9.3°
1009.2 hPa 73.6 mm 7.5°
1
90%
22:00
1009.4 hPa 73.6 mm 6.8°
1
91%
 07:42     16:42    Daglengte: 9:00 Woensdag 27 Nov
01:00
Voelt als: 6.8°
1009.5 hPa 73.6 mm 6.1°
1
92%
04:00
1007.2 hPa 73.6 mm 6.6°
1
92%
07:00
Voelt als: 8.3°
1004.9 hPa 73.6 mm 7.1°
1
92%
10:00
1003.5 hPa 73.6 mm 6.8°
1
77%
13:00
10°
Voelt als: 9.6°
1002.0 hPa 73.6 mm 6.2°
1
62%
16:00
Voelt als: 8.9°
1002.5 hPa 73.6 mm 6.6°
1
49%
19:00
1003.1 hPa 73.6 mm 6.7°
1
36%
22:00
Voelt als: 5.8°
1004.3 hPa   5.1°
1
63%
 07:43     16:42    Daglengte: 8:59 Donderdag 28 Nov
01:00
Voelt als: 3.4°
1005.3 hPa 147.7 mm 3.5°
1
90%
07:00
Voelt als: 2.5°
1007.9 hPa 152.0 mm 2.8°
2
87%
13:00
13°
1010.1 hPa 165.6 mm 2.1°
1
1%
19:00
1012.1 hPa 176.3 mm 4.8°
1
0%
 07:45     16:41    Daglengte: 8:56 Vrijdag 29 Nov
01:00
Voelt als: 7.6°
1013.3 hPa 182.9 mm 5.1°
1
87%
07:00
Voelt als: 5.5°
1013.2 hPa 183.5 mm 3.6°
1
19%
13:00
13°
1012.7 hPa 183.8 mm 6.3°
1
59%
19:00
Voelt als: 9.1°
1014.2 hPa 184.0 mm 6.4°
0
57%
 07:46     16:41    Daglengte: 8:55 Zaterdag 30 Nov
01:00
Voelt als: 6.4°
1015.1 hPa 184.0 mm 5.0°
1
37%
07:00
Voelt als: 7.1°
1015.2 hPa 184.0 mm 5.5°
1
77%
13:00
13°
1014.8 hPa 184.0 mm 7.9°
1
92%
19:00
Voelt als: 5.6°
1018.5 hPa 0.3 mm 3.7°
1
44%
 07:47     16:40    Daglengte: 8:53 Zondag 01 Dec
01:00
Voelt als: 4.9°
1019.4 hPa 0.4 mm 3.1°
1
47%
07:00
Voelt als: 4.9°
1018.9 hPa 0.2 mm 2.9°
1
47%
13:00
10°
Voelt als: 9.7°
1017.4 hPa 0.6 mm 5.7°
1
42%
19:00
Voelt als: 5.8°
1018.0 hPa 1.2 mm 4.1°
1
46%
 07:48     16:40    Daglengte: 8:52 Maandag 02 Dec
01:00
Voelt als: 4.8°
1018.0 hPa 0.5 mm 2.8°
1
44%
07:00
Voelt als: 4.4°
1017.9 hPa 0.8 mm 2.3°
1
45%
13:00
10°
1016.6 hPa 1.2 mm 5.3°
0
48%
19:00
Voelt als: 4.7°
1017.7 hPa 0.8 mm 2.9°
1
45%
 07:49     16:40    Daglengte: 8:51 Dinsdag 03 Dec
01:00
Voelt als: 3.4°
1017.9 hPa 0.3 mm 1.8°
1
40%
07:00
Voelt als: 3.4°
1017.5 hPa 0.6 mm 1.7°
1
45%
13:00
Voelt als: 9.4°
1015.4 hPa 0.8 mm 4.9°
0
43%
19:00
Voelt als: 4.9°
1015.5 hPa 0.9 mm 2.7°
1
45%
 07:50     16:39    Daglengte: 8:49 Woensdag 04 Dec
01:00
Voelt als: 4.2°
1014.8 hPa 2.3 mm 1.7°
1
49%
07:00
Voelt als: 4.4°
1013.0 hPa 1.9 mm 2.1°
1
60%
13:00
Voelt als: 8.4°
1011.8 hPa 1.9 mm 4.3°
1
60%
19:00
Voelt als: 3.3°
1013.6 hPa 0.5 mm 2.1°
1
50%
 07:51     16:39    Daglengte: 8:48 Donderdag 05 Dec
01:00
Voelt als: 2.4°
1014.7 hPa 0.3 mm 1.1°
2
39%
07:00
Voelt als: 2.2°
1014.9 hPa 0.1 mm 0.7°
1
37%
13:00
Voelt als: 8.1°
1013.7 hPa 0.1 mm 3.0°
0
38%
19:00
Voelt als: 3.8°
1014.3 hPa 0.4 mm 1.5°
1
40%
  CAPE Lifted Index Hail Supercell Tornado SRH 3km CL BTM PRES CL TOP PRES Swiss DWD icon SMHI TS
 07:33     16:47    Daglengte: 9:14 Vandaag
23:00 0 J/kg 2.1 K 0 % 0 % 0 % 0 m²/s² 0 0 2.91 3
 07:34     16:47    Daglengte: 9:13 Morgen
00:00 0 J/kg 2.0 K 0 % 0 % 0 % 0 m²/s² 0 0 2.84 3
01:00 0 J/kg 2.0 K 0 % 0 % 0 % 0 m²/s² 0 0 2.54 3
02:00 0 J/kg 1.7 K 0 % 0 % 0 % 0 m²/s² 0 0 2.18 3
03:00 0 J/kg 1.6 K 0 % 0 % 0 % 0 m²/s² 0 0 2.17 80
04:00 0 J/kg 1.4 K 0 % 0 % 0 % 0 m²/s² 0 0 1.76 55
05:00 0 J/kg 1.2 K 0 % 0 % 0 % 0 m²/s² 0 0 1.62 61
06:00 0 J/kg 1.1 K 0 % 0 % 0 % 0 m²/s² 0 0 1.49 61
07:00 0 J/kg 1.6 K 0 % 0 % 0 % 0 m²/s² 0 0 2.26 80
08:00 0 J/kg 2.0 K 0 % 0 % 0 % 0 m²/s² 0 0 4.7 45
09:00 7 J/kg 2.7 K 0 % 0 % 0 % 0 m²/s² 0 0 9.39 80
10:00 39 J/kg 3.0 K 0 % 0 % 0 % 0 m²/s² 0 0 9.09 45
11:00 42 J/kg 3.4 K 0 % 0 % 0 % 0 m²/s² 0 0 8.53 3
12:00 46 J/kg 3.4 K 0 % 0 % 0 % 0 m²/s² 0 0 5.2 3
13:00 50 J/kg 2.9 K 0 % 0 % 0 % 0 m²/s² 0 0 3.74 3
14:00 58 J/kg 2.7 K 0 % 0 % 0 % 0 m²/s² 0 0 3.63 61
15:00 62 J/kg 2.5 K 0 % 0 % 0 % 0 m²/s² 0 0 3.7 3
16:00 58 J/kg 2.1 K 0 % 0 % 0 % 0 m²/s² 0 0 3.21 3
17:00 37 J/kg 1.9 K 0 % 0 % 0 % 0 m²/s² 0 0 2.59 80
18:00 29 J/kg 2.3 K 0 % 0 % 0 % 0 m²/s² 0 0 2.84 80
19:00 3 J/kg 2.1 K 0 % 0 % 0 % 0 m²/s² 0 0 2.43 80
20:00 6 J/kg 2.1 K 0 % 0 % 0 % 0 m²/s² 0 0 2.43 3
21:00 1 J/kg 1.8 K 0 % 0 % 0 % 0 m²/s² 0 0 2.16 61
22:00 0 J/kg 1.7 K 0 % 0 % 0 % 0 m²/s² 0 0 2.06 61
23:00 0 J/kg 1.5 K 0 % 0 % 0 % 0 m²/s² 0 0 2.1 61
 07:36     16:46    Daglengte: 9:10 Vrijdag 22 Nov
00:00 0 J/kg 1.3 K 0 % 0 % 0 % 0 m²/s² 0 0 1.75 61
01:00 1 J/kg 1.1 K 0 % 0 % 0 % 0 m²/s² 0 0 1.55 61
02:00 10 J/kg 1.4 K 0 % 0 % 0 % 0 m²/s² 0 0 1.73 61
03:00 10 J/kg 1.5 K 0 % 0 % 0 % 0 m²/s² 0 0 1.86 61
04:00 2 J/kg 1.0 K 0 % 0 % 0 % 0 m²/s² 0 0 1.24 61
05:00 7 J/kg 1.6 K 0 % 0 % 0 % 0 m²/s² 0 0 1.87 61
06:00 15 J/kg 1.9 K 0 % 0 % 0 % 0 m²/s² 0 0 2.17 61
07:00 6 J/kg 2.0 K 0 % 0 % 0 % 0 m²/s² 0 0 2.33 61
08:00 1 J/kg 2.0 K 0 % 0 % 0 % 0 m²/s² 0 0 2.84 61
09:00 2 J/kg 1.8 K 0 % 0 % 0 % 0 m²/s² 0 0 3.72 61
10:00 1 J/kg 2.1 K 0 % 0 % 0 % 0 m²/s² 0 0 4.29 61
11:00 3 J/kg 2.3 K 0 % 0 % 0 % 0 m²/s² 0 0 3.89 61
12:00 37 J/kg 2.4 K 0 % 0 % 0 % 0 m²/s² 0 0 3.72 61
13:00 80 J/kg 2.9 K 0 % 0 % 0 % 0 m²/s² 0 0 3.74 61
14:00 98 J/kg 2.8 K 0 % 0 % 0 % 0 m²/s² 0 0 5.05 61
15:00 102 J/kg 3.3 K 0 % 0 % 0 % 0 m²/s² 0 0 6.54 61
16:00 134 J/kg 3.6 K 0 % 0 % 0 % 0 m²/s² 0 0 6.69 61
17:00 131 J/kg 3.6 K 0 % 0 % 0 % 0 m²/s² 0 0 6.21 61
18:00 76 J/kg 4.1 K 0 % 0 % 0 % 0 m²/s² 0 0 5.81 80
19:00 39 J/kg 4.4 K 0 % 0 % 0 % 0 m²/s² 0 0 6.11 80
20:00 8 J/kg 4.1 K 0 % 0 % 0 % 0 m²/s² 0 0 5.87 61
21:00 16 J/kg 3.9 K 0 % 0 % 0 % 0 m²/s² 0 0 5.37 61
22:00 11 J/kg 4.4 K 0 % 0 % 0 % 0 m²/s² 0 0 5.18 61
23:00 18 J/kg 4.3 K 0 % 0 % 0 % 0 m²/s² 0 0 4.66 61
 07:37     16:45    Daglengte: 9:08 Zaterdag 23 Nov
00:00 25 J/kg 4.0 K 0 % 0 % 0 % 0 m²/s² 0 0 4.33 61
01:00 12 J/kg 4.5 K 0 % 0 % 0 % 0 m²/s² 0 0 4.74 61
02:00 19 J/kg 3.7 K 0 % 0 % 0 % 0 m²/s² 0 0 3.82 61
03:00 0 J/kg 2.3 K 0 % 0 % 0 % 0 m²/s² 0 0 2.51 61
04:00 0 J/kg 2.3 K 0 % 0 % 0 % 0 m²/s² 0 0 2.51 61
05:00 0 J/kg 1.8 K 0 % 0 % 0 % 0 m²/s² 0 0 2.04 61
06:00 0 J/kg 0.9 K 0 % 0 % 0 % 0 m²/s² 0 0 1.2 61
07:00 0 J/kg 1.6 K 0 % 0 % 0 % 0 m²/s² 0 0 1.78 61
08:00 0 J/kg 1.4 K 0 % 0 % 0 % 0 m²/s² 0 0 1.58 61
09:00 0 J/kg 1.4 K 0 % 0 % 0 % 0 m²/s² 0 0 1.52 63
10:00 18 J/kg 1.0 K 0 % 0 % 0 % 0 m²/s² 0 0 1.21 61
11:00 44 J/kg 1.4 K 0 % 0 % 0 % 0 m²/s² 0 0 1.73 63
12:00 69 J/kg 1.8 K 0 % 0 % 0 % 0 m²/s² 0 0 1.89 63
13:00 49 J/kg 0.6 K 0 % 0 % 0 % 0 m²/s² 0 0 0.81 63
14:00 19 J/kg 1.3 K 0 % 0 % 0 % 0 m²/s² 0 0 1.51 63
15:00 38 J/kg 1.2 K 0 % 0 % 0 % 0 m²/s² 0 0 1.44 63
16:00 43 J/kg 1.9 K 0 % 0 % 0 % 0 m²/s² 0 0 2.2 61
17:00 51 J/kg 1.9 K 0 % 0 % 0 % 0 m²/s² 0 0 2.2 61
18:00 53 J/kg 1.2 K 0 % 0 % 0 % 0 m²/s² 0 0 1.65 61
19:00 52 J/kg 1.4 K 0 % 0 % 0 % 0 m²/s² 0 0 1.76 61
20:00 71 J/kg 1.5 K 0 % 0 % 0 % 0 m²/s² 0 0 1.74
21:00 55 J/kg 1.7 K 0 % 0 % 0 % 0 m²/s² 0 0 1.91
22:00 64 J/kg 1.5 K 0 % 0 % 0 % 0 m²/s² 0 0 1.68
Temp Baro Wind Neerslag
  EWN Forecast EWN WRFDA DWD ICON FMI HIRLAM MET Norway GFS
 07:34     16:47    Daglengte: 9:13 Morgen
01:00 7.3° 1012.1 hPa 0.9 m/s 0.0 mm 7.7° 1009.8 hPa 2.7 m/s 0.8 mm 7.1° 1012.2 hPa 0.9 m/s -1.3 mm 7.5° 1013.8 hPa 0.7 m/s 0.0 mm 8.9° 1012.1 hPa 0.4 m/s 0.0 mm 7.3° 1012.4 hPa 1.7 m/s
04:00 7.9° 1011.3 hPa 1.0 m/s 0.8 mm 8.3° 1008.8 hPa 2.5 m/s 1.0 mm 7.0° 1011.6 hPa 0.7 m/s 0.9 mm 8.7° 1012.6 hPa 1.2 m/s 0.0 mm 8.6° 1011.3 hPa 0.8 m/s 0.0 mm 7.5° 1011.4 hPa 1.5 m/s
07:00 7.8° 1011.6 hPa 1.1 m/s 2.0 mm 8.3° 1008.6 hPa 2.6 m/s 1.9 mm 6.9° 1012.0 hPa 0.5 m/s 1.6 mm 9.4° 1011.8 hPa 1.3 m/s 0.0 mm 8.2° 1011.5 hPa 1.1 m/s 0.4 mm 7.7° 1011.7 hPa 1.2 m/s
10:00 8.6° 1012.5 hPa 1.3 m/s 0.8 mm 9.4° 1009.9 hPa 4.3 m/s 3.1 mm 7.8° 1012.8 hPa 0.8 m/s 0.5 mm 9.7° 1012.0 hPa 3.2 m/s 0.0 mm 8.9° 1012.6 hPa 0.9 m/s 0.9 mm 9.7° 1011.8 hPa 0.6 m/s
13:00 9.6° 1012.1 hPa 0.9 m/s 0.0 mm 11.2° 1009.3 hPa 2.6 m/s 3.4 mm 8.8° 1012.4 hPa 0.6 m/s 0.2 mm 10.1° 1011.0 hPa 1.9 m/s 0.0 mm 9.8° 1012.4 hPa 0.4 m/s 1.2 mm 8.7° 1010.8 hPa 1.1 m/s
16:00 9.2° 1011.5 hPa 0.9 m/s 0.8 mm 10.6° 1008.8 hPa 2.8 m/s 3.6 mm 8.1° 1011.6 hPa 0.8 m/s 0.5 mm 10.3° 1010.6 hPa 1.1 m/s 0.0 mm 9.4° 1012.0 hPa 0.8 m/s 0.4 mm 8.8° 1010.8 hPa 1.0 m/s
19:00 8.2° 1012.6 hPa 1.2 m/s 1.8 mm 9.2° 1008.9 hPa 3.0 m/s 3.9 mm 6.5° 1012.8 hPa 1.4 m/s 1.0 mm 9.4° 1011.6 hPa 2.5 m/s 0.0 mm 8.8° 1013.1 hPa 0.4 m/s 1.9 mm 6.3° 1012.5 hPa 1.7 m/s
22:00 7.5° 1012.8 hPa 1.2 m/s 3.8 mm 8.8° 1009.5 hPa 3.5 m/s 13.9 mm 6.4° 1012.7 hPa 0.5 m/s 0.4 mm 9.4° 1011.7 hPa 2.0 m/s 0.0 mm 7.8° 1013.3 hPa 1.1 m/s 2.4 mm 7.1° 1013.2 hPa 1.4 m/s
 07:36     16:46    Daglengte: 9:10 Vrijdag 22 Nov
01:00 7.5° 1012.4 hPa 1.3 m/s 3.6 mm 9.1° 1009.1 hPa 4.3 m/s 16.3 mm 6.2° 1012.1 hPa 1.3 m/s 0.8 mm 9.3° 1010.8 hPa 3.2 m/s 0.0 mm 7.8° 1013.1 hPa 0.6 m/s 1.6 mm 7.2° 1013.1 hPa 1.9 m/s
04:00 7.2° 1012.0 hPa 1.8 m/s 6.1 mm 8.8° 1008.0 hPa 3.0 m/s 18.0 mm 6.0° 1012.0 hPa 1.7 m/s 4.6 mm 10.1° 1009.5 hPa 6.0 m/s 0.0 mm 7.4° 1012.7 hPa 1.0 m/s 4.4 mm 6.8° 1012.6 hPa 1.6 m/s
07:00 6.9° 1012.4 hPa 1.9 m/s 9.6 mm 8.4° 1008.1 hPa 2.1 m/s 36.4 mm 5.6° 1012.6 hPa 1.7 m/s 5.7 mm 10.3° 1009.5 hPa 7.2 m/s 0.0 mm 6.9° 1013.2 hPa 1.1 m/s 5.7 mm 6.3° 1012.8 hPa 1.8 m/s
10:00 6.9° 1013.2 hPa 1.8 m/s 11.7 mm 8.2° 1009.3 hPa 1.7 m/s 50.3 mm 5.8° 1013.3 hPa 1.8 m/s 6.2 mm 10.4° 1010.4 hPa 5.8 m/s 0.0 mm 6.9° 1014.1 hPa 1.2 m/s 7.1 mm 6.7° 1012.7 hPa 1.4 m/s
13:00 7.1° 1012.7 hPa 2.0 m/s 12.9 mm 9.8° 1009.3 hPa 4.6 m/s 54.8 mm 6.1° 1012.9 hPa 1.9 m/s 5.6 mm 10.3° 1009.6 hPa 5.7 m/s 0.0 mm 6.9° 1013.5 hPa 1.2 m/s 7.9 mm 7.4° 1010.9 hPa 0.7 m/s
16:00 7.1° 1012.3 hPa 1.1 m/s 12.7 mm 10.2° 1008.5 hPa 3.7 m/s 57.5 mm 5.7° 1012.3 hPa 1.8 m/s 3.7 mm 7.4° 1012.5 hPa 0.8 m/s 5.4 mm 7.7° 1010.1 hPa 0.7 m/s
19:00 6.8° 1012.4 hPa 1.1 m/s 11.3 mm 9.2° 1008.5 hPa 4.8 m/s 59.0 mm 5.4° 1012.5 hPa 1.4 m/s 3.0 mm 7.2° 1012.6 hPa 0.7 m/s 4.6 mm 7.8° 1011.1 hPa 0.7 m/s
22:00 7.1° 1012.6 hPa 1.3 m/s 12.5 mm 9.6° 1008.5 hPa 5.3 m/s 59.3 mm 5.6° 1012.1 hPa 1.8 m/s 2.4 mm 7.5° 1013.0 hPa 0.6 m/s 3.8 mm 7.8° 1010.8 hPa 1.0 m/s
 07:37     16:45    Daglengte: 9:08 Zaterdag 23 Nov
01:00 7.4° 1011.2 hPa 1.4 m/s 12.3 mm 9.9° 1006.1 hPa 4.0 m/s 59.5 mm 6.0° 1011.0 hPa 1.8 m/s 3.9 mm 7.8° 1011.6 hPa 0.9 m/s 2.6 mm 7.7° 1009.8 hPa 1.5 m/s
04:00 7.7° 1009.6 hPa 2.1 m/s 13.2 mm 10.6° 1003.5 hPa 8.3 m/s 63.1 mm 6.2° 1010.0 hPa 2.1 m/s 5.3 mm 8.1° 1010.0 hPa 1.6 m/s 4.5 mm 7.7° 1008.1 hPa 2.0 m/s
07:00 7.6° 1009.2 hPa 2.0 m/s 14.5 mm 11.2° 1002.4 hPa 8.8 m/s 68.9 mm 6.3° 1009.2 hPa 2.3 m/s 7.3 mm 8.0° 1009.7 hPa 1.3 m/s 4.8 mm 7.3° 1007.2 hPa 1.4 m/s
10:00 8.4° 1009.4 hPa 2.1 m/s 15.8 mm 12.1° 1002.7 hPa 8.9 m/s 79.2 mm 6.8° 1009.7 hPa 2.0 m/s 8.5 mm 8.8° 1009.9 hPa 1.6 m/s 3.7 mm 8.1° 1006.1 hPa 1.5 m/s
13:00 9.2° 1008.5 hPa 2.1 m/s 17.9 mm 13.1° 1002.1 hPa 9.6 m/s 90.6 mm 7.3° 1008.9 hPa 1.9 m/s 10.5 mm 9.6° 1009.0 hPa 1.5 m/s 3.6 mm 8.9° 1005.1 hPa 1.0 m/s
16:00 9.7° 1007.9 hPa 2.3 m/s 25.2 mm 12.9° 1001.8 hPa 8.9 m/s 98.2 mm 7.5° 1008.7 hPa 2.0 m/s 9.1 mm 9.7° 1008.6 hPa 1.1 m/s 4.7 mm 9.5° 1005.1 hPa 1.2 m/s
19:00 9.3° 1009.4 hPa 2.0 m/s 22.5 mm 12.8° 1002.0 hPa 8.0 m/s 100.8 mm 7.5° 1010.0 hPa 1.7 m/s 2.8 mm 9.2° 1010.5 hPa 1.1 m/s 3.1 mm 9.7° 1006.5 hPa 1.5 m/s
22:00 9.4° 1010.5 hPa 2.2 m/s 105.7 mm 12.4° 1003.5 hPa 8.6 m/s 105.7 mm 8.9° 1011.6 hPa 1.1 m/s 9.6° 1008.1 hPa 1.8 m/s
 07:38     16:44    Daglengte: 9:06 Zondag 24 Nov
01:00 9.1° 1011.5 hPa 1.8 m/s 128.5 mm 11.8° 1004.0 hPa 6.2 m/s 128.5 mm 8.6° 1012.8 hPa 1.1 m/s 9.3° 1009.1 hPa 2.2 m/s
04:00 8.2° 1013.1 hPa 1.4 m/s 70.1 mm 8.1° 1013.4 hPa 1.3 m/s 9.2° 1010.0 hPa 2.1 m/s 70.1 mm
07:00 8.0° 1013.6 hPa 1.5 m/s 73.1 mm 7.9° 1013.7 hPa 1.4 m/s 9.3° 1012.0 hPa 2.1 m/s 73.1 mm
10:00 11.3° 1014.0 hPa 1.1 m/s 73.6 mm 11.4° 1014.0 hPa 1.0 m/s 10.2° 1013.3 hPa 2.2 m/s 73.6 mm
13:00 14.8° 1014.3 hPa 0.7 m/s 73.6 mm 14.9° 1014.4 hPa 0.6 m/s 14.1° 1013.2 hPa 1.6 m/s 73.6 mm
16:00 12.7° 1014.6 hPa 0.7 m/s 73.6 mm 12.8° 1014.7 hPa 0.6 m/s 11.9° 1013.9 hPa 1.4 m/s 73.6 mm
19:00 10.5° 1015.0 hPa 0.8 m/s 73.6 mm 10.7° 1015.0 hPa 0.6 m/s 8.3° 1015.5 hPa 2.5 m/s 73.6 mm
22:00 10.3° 1015.0 hPa 1.0 m/s 73.6 mm 10.5° 1014.9 hPa 0.9 m/s 8.3° 1016.2 hPa 2.5 m/s 73.6 mm
 07:39     16:44    Daglengte: 9:05 Maandag 25 Nov
01:00 10.1° 1014.8 hPa 1.2 m/s 73.6 mm 10.3° 1014.7 hPa 1.1 m/s 8.0° 1015.8 hPa 2.3 m/s 73.6 mm
04:00 9.8° 1013.9 hPa 1.1 m/s 73.6 mm 10.0° 1013.8 hPa 1.0 m/s 7.6° 1015.2 hPa 2.4 m/s 73.6 mm
07:00 9.5° 1013.1 hPa 0.9 m/s 73.6 mm 9.7° 1012.9 hPa 0.8 m/s 7.5° 1015.2 hPa 2.5 m/s 73.6 mm
10:00 10.4° 1012.5 hPa 0.7 m/s 73.6 mm 10.3° 1012.2 hPa 0.7 m/s 11.6° 1015.0 hPa 1.8 m/s 73.6 mm
13:00 11.3° 1011.8 hPa 0.5 m/s 73.6 mm 10.9° 1011.6 hPa 0.5 m/s 15.8° 1013.9 hPa 0.3 m/s 73.6 mm
16:00 10.6° 1011.0 hPa 0.6 m/s 73.6 mm 10.4° 1010.7 hPa 0.6 m/s 12.8° 1014.6 hPa 0.7 m/s 73.6 mm
19:00 10.0° 1010.3 hPa 0.7 m/s 73.6 mm 10.0° 1009.8 hPa 0.6 m/s 9.9° 1015.8 hPa 2.2 m/s 73.6 mm
22:00 9.9° 1009.6 hPa 0.7 m/s 73.6 mm 10.0° 1009.0 hPa 0.6 m/s 8.9° 1016.8 hPa 2.2 m/s 73.6 mm
 07:41     16:43    Daglengte: 9:02 Dinsdag 26 Nov
01:00 9.9° 1008.8 hPa 0.7 m/s 73.6 mm 10.0° 1008.1 hPa 0.5 m/s 8.4° 1016.9 hPa 2.4 m/s 73.6 mm
04:00 8.0° 1008.4 hPa 0.7 m/s 73.6 mm 8.1° 1007.7 hPa 0.5 m/s 7.8° 1016.4 hPa 2.4 m/s 73.6 mm
07:00 6.2° 1008.0 hPa 0.7 m/s 73.6 mm 6.1° 1007.2 hPa 0.5 m/s 7.4° 1016.5 hPa 2.3 m/s 73.6 mm
10:00 9.8° 1008.1 hPa 0.6 m/s 73.6 mm 9.7° 1007.4 hPa 0.6 m/s 10.8° 1016.4 hPa 1.5 m/s 73.6 mm
13:00 13.4° 1008.1 hPa 0.6 m/s 73.6 mm 13.3° 1007.5 hPa 0.6 m/s 14.0° 1014.7 hPa 0.2 m/s 73.6 mm
16:00 11.3° 1008.6 hPa 0.5 m/s 73.6 mm 11.4° 1008.0 hPa 0.6 m/s 11.1° 1014.5 hPa 0.3 m/s 73.6 mm
19:00 9.3° 1009.2 hPa 0.6 m/s 73.6 mm 9.4° 1008.6 hPa 0.5 m/s 8.4° 1015.7 hPa 1.6 m/s 73.6 mm
22:00 8.1° 1009.4 hPa 0.8 m/s 73.6 mm 8.1° 1008.8 hPa 0.7 m/s 7.6° 1016.4 hPa 2.1 m/s 73.6 mm
 07:42     16:42    Daglengte: 9:00 Woensdag 27 Nov
01:00 6.8° 1009.5 hPa 0.9 m/s 73.6 mm 6.8° 1008.9 hPa 0.8 m/s 6.9° 1016.2 hPa 2.0 m/s 73.6 mm
04:00 7.6° 1007.2 hPa 0.9 m/s 73.6 mm 7.7° 1006.5 hPa 0.8 m/s 6.5° 1015.8 hPa 2.1 m/s 73.6 mm
07:00 8.3° 1004.9 hPa 0.8 m/s 73.6 mm 8.5° 1004.0 hPa 0.7 m/s 6.1° 1015.4 hPa 1.9 m/s 73.6 mm
10:00 9.1° 1003.5 hPa 1.0 m/s 73.6 mm 9.0° 1002.5 hPa 1.0 m/s 9.9° 1015.3 hPa 0.7 m/s 73.6 mm
13:00 9.7° 1002.0 hPa 1.3 m/s 73.6 mm 9.5° 1000.9 hPa 1.3 m/s 12.2° 1013.7 hPa 0.9 m/s 73.6 mm
16:00 8.9° 1002.5 hPa 1.1 m/s 73.6 mm 8.8° 1001.5 hPa 1.1 m/s 9.9° 1013.9 hPa 0.4 m/s 73.6 mm
19:00 8.3° 1003.1 hPa 0.9 m/s 73.6 mm 8.2° 1002.0 hPa 1.0 m/s 9.2° 1015.6 hPa 0.4 m/s 73.6 mm
22:00 6.4° 1004.3 hPa 1.2 m/s 73.6 mm 6.1° 1003.2 hPa 1.2 m/s 8.7° 1016.1 hPa 1.2 m/s 73.6 mm
 07:43     16:42    Daglengte: 8:59 Donderdag 28 Nov
01:00 4.5° 1005.3 hPa 1.4 m/s 74.0 mm 4.1° 1004.4 hPa 1.5 m/s 8.8° 1015.7 hPa 0.9 m/s 74.0 mm
07:00 4.1° 1007.9 hPa 1.8 m/s 76.7 mm 3.7° 1007.2 hPa 1.9 m/s 8.9° 1015.2 hPa 1.1 m/s 76.7 mm
13:00 13.4° 1010.1 hPa 1.0 m/s 85.1 mm 13.8° 1009.7 hPa 1.0 m/s 9.4° 1014.2 hPa 0.5 m/s 85.1 mm
19:00 7.8° 1012.1 hPa 1.0 m/s 89.3 mm 7.6° 1012.0 hPa 1.0 m/s 9.5° 1013.4 hPa 0.5 m/s 89.3 mm
 07:45     16:41    Daglengte: 8:56 Vrijdag 29 Nov
01:00 7.6° 1013.3 hPa 0.7 m/s 91.8 mm 7.4° 1013.3 hPa 0.8 m/s 9.9° 1012.8 hPa 0.2 m/s 91.8 mm
07:00 5.8° 1013.2 hPa 1.0 m/s 91.8 mm 5.4° 1013.3 hPa 1.1 m/s 9.9° 1012.2 hPa 0.3 m/s 91.8 mm
13:00 13.4° 1012.7 hPa 0.8 m/s 92.0 mm 13.4° 1012.7 hPa 0.8 m/s 13.6° 1012.3 hPa 0.6 m/s 92.0 mm
19:00 9.1° 1014.2 hPa 0.5 m/s 92.0 mm 9.2° 1014.1 hPa 0.3 m/s 8.4° 1015.8 hPa 2.7 m/s 92.0 mm
 07:46     16:41    Daglengte: 8:55 Zaterdag 30 Nov
01:00 7.0° 1015.1 hPa 1.4 m/s 92.0 mm 7.1° 1014.8 hPa 1.2 m/s 6.4° 1017.9 hPa 3.4 m/s 92.0 mm
07:00 7.5° 1015.2 hPa 1.3 m/s 92.0 mm 7.7° 1015.0 hPa 1.2 m/s 5.8° 1017.2 hPa 2.4 m/s 92.0 mm
13:00 12.7° 1014.8 hPa 0.7 m/s 92.0 mm 12.7° 1014.8 hPa 0.7 m/s 12.6° 1015.4 hPa 1.0 m/s 92.0 mm
19:00 5.9° 1018.5 hPa 1.0 m/s 0.3 mm
 07:47     16:40    Daglengte: 8:53 Zondag 01 Dec
01:00 5.3° 1019.4 hPa 1.1 m/s 0.4 mm
07:00 5.2° 1018.9 hPa 1.0 m/s 0.2 mm
13:00 9.7° 1017.4 hPa 0.8 m/s 0.6 mm
19:00 5.8° 1018.0 hPa 0.8 m/s 1.2 mm
 07:48     16:40    Daglengte: 8:52 Maandag 02 Dec
01:00 5.0° 1018.0 hPa 1.0 m/s 0.5 mm
07:00 4.7° 1017.9 hPa 1.0 m/s 0.8 mm
13:00 9.7° 1016.6 hPa 0.2 m/s 1.2 mm
19:00 5.2° 1017.7 hPa 1.2 m/s 0.8 mm
 07:49     16:40    Daglengte: 8:51 Dinsdag 03 Dec
01:00 4.5° 1017.9 hPa 1.5 m/s 0.3 mm
07:00 4.6° 1017.5 hPa 1.5 m/s 0.6 mm
13:00 9.4° 1015.4 hPa 0.2 m/s 0.8 mm
19:00 5.1° 1015.5 hPa 0.9 m/s 0.9 mm
 07:50     16:39    Daglengte: 8:49 Woensdag 04 Dec
01:00 4.3° 1014.8 hPa 0.9 m/s 2.3 mm
07:00 4.7° 1013.0 hPa 1.0 m/s 1.9 mm
13:00 8.4° 1011.8 hPa 0.7 m/s 1.9 mm
19:00 4.5° 1013.6 hPa 1.5 m/s 0.5 mm
 07:51     16:39    Daglengte: 8:48 Donderdag 05 Dec
01:00 3.7° 1014.7 hPa 1.6 m/s 0.3 mm
07:00 3.4° 1014.9 hPa 1.5 m/s 0.1 mm
13:00 8.1° 1013.7 hPa 0.1 m/s 0.1 mm
19:00 4.0° 1014.3 hPa 0.9 m/s 0.4 mm
FMI Hirlam - 7.5 km EWN WRFDA - 12 km DWD ICON - 7 km GFS - 25 km Basiskaart






























































Updatetijd (Europe/Amsterdam) Resolutie Lengte Stap
FMI Hirlam 18:00, 00:00, 06:00, 12:00 7.5 km 49h 1h
EWN WRFDA 20:15, 02:15, 08:15, 14:15 12 km 73h 1h
DWD ICON 16:45, 22:45, 04:45, 10:45 7 km 75h 1h
GFS 19:30, 01:30, 07:30, 13:30 25 km 237h 3h
30+ mm
25-30 mm
20-25 mm
15-20 mm
10-15 mm
6-10 mm
4-6 mm
2-4 mm
1-2 mm
0.5-1 mm
0.2-0.5 mm
0.1-0.2 mm
30+ mm
25-30 mm
20-25 mm
15-20 mm
10-15 mm
6-10 mm
4-6 mm
2-4 mm
1-2 mm
0.5-1 mm
0.2-0.5 mm
0.1-0.2 mm
Sneeuwval
Natte sneeuw
Hagel
Vorst
30+ mm
25-30 mm
20-25 mm
15-20 mm
10-15 mm
6-10 mm
4-6 mm
2-4 mm
1-2 mm
0.5-1 mm
0.2-0.5 mm
0.1-0.2 mm
Sneeuwval
Natte sneeuw
Hagel
Vorst
Onweer
50 mm
40 mm
30 mm
26 mm
22 mm
18 mm
14 mm
10 mm
9 mm
8 mm
7 mm
6 mm
5 mm
4.5 mm
4 mm
3.5 mm
3 mm
2.5 mm
2 mm
1.5 mm
1 mm
0.8 mm
0.6 mm
0.4 mm
0.2 mm
0.05 mm
35°
30°
25°
20°
15°
10°
-5°
-10°
-15°
-20°
-25°
-30°
-35°
120> km/h
105 km/h
90 km/h
75 km/h
60 km/h
50 km/h
40 km/h
30 km/h
20 km/h
10 km/h
0 km/h
2600 J/kg
2400 J/kg
2200 J/kg
2000 J/kg
1800 J/kg
1600 J/kg
1400 J/kg
1200 J/kg
1000 J/kg
800 J/kg
600 J/kg
400 J/kg
200 J/kg
70 dBZ
65 dBZ
60 dBZ
55 dBZ
50 dBZ
45 dBZ
40 dBZ
35 dBZ
30 dBZ
25 dBZ
20 dBZ
15 dBZ
10 dBZ
5 dBZ
-1 K
-2 K
-3 K
-4 K
-5 K
-6 K
-7 K
-8 K
-9 K
950 m²/s²
900 m²/s²
850 m²/s²
800 m²/s²
750 m²/s²
700 m²/s²
650 m²/s²
600 m²/s²
550 m²/s²
500 m²/s²
450 m²/s²
400 m²/s²
350 m²/s²
300 m²/s²
250 m²/s²
200 m²/s²
150 m²/s²
100 m²/s²
46 m/s
44 m/s
42 m/s
40 m/s
38 m/s
36 m/s
34 m/s
32 m/s
30 m/s
28 m/s
26 m/s
24 m/s
22 m/s
20 m/s
16 m/s
12 m/s
8 m/s
4 m/s
30 m/s
28 m/s
26 m/s
24 m/s
22 m/s
20 m/s
18 m/s
16 m/s
14 m/s
12 m/s
10 m/s
8 m/s
6 m/s
4 m/s
2 m/s
3.0
2.8
2.6
2.4
2.2
2.0
1.8
1.6
1.4
1.2
1.0
0.8
0.6
0.4
0.2
15
14
13
12
11
10
9
8
7
6
5
4
3
2
1
90%
80%
70%
60%
50%
40%
30%
20%
10%
42
40
38
36
34
32
30
28
26
24
22
20
18
16
14
12
90+ cm
80-90 cm
70-80 cm
60-70 cm
50-60 cm
40-50 cm
30-40 cm
20-30 cm
10-20 cm
1-10 cm
Sneeuwval
Natte sneeuw
Regen
>120 mm
115 mm
110 mm
105 mm
100 mm
95 mm
90 mm
85 mm
80 mm
75 mm
70 mm
65 mm
60 mm
55 mm
50 mm
45 mm
45 mm
40 mm
35 mm
30 mm
25 mm
20 mm
15 mm
10 mm
5 mm
0.1 mm
960 hPa
880 hPa
800 hPa
720 hPa
640 hPa
560 hPa
584 gpdm
568 gpdm
552 gpdm
536 gpdm
520 gpdm
504 gpdm
488 gpdm
Extreem zwaar Noodweer Kans op onweer
15% 15% 5% 50% 15%

Dag




Kaart






35°
30°
25°
20°
15°
10°
-5°
-10°
-15°
-20°
-25°
-30°
-35°
120> km/h
105 km/h
90 km/h
75 km/h
60 km/h